Terminal Aerodrome Forecast
Issued by NWS Boston, MA

Home | Current Version | Previous Version | Text Only | Print | Product List | Glossary On
Versions: 1 2 3 4 5 6 7 8 9 10 11 12 13 14 15 16 17 18 19 20 21 22 23 24
000
FTUS41 KBOX 061735
TAFPVD
TAF
KPVD 061735Z 0618/0718 05011KT P6SM BKN020
     FM062000 08010KT P6SM BKN010
     FM070000 08008KT P6SM -RA OVC008
     FM070400 06008KT 2SM BR OVC003
     FM071500 06007KT P6SM BKN008=

USA.gov is the U.S. government's official web portal to all federal, state and local government web resources and services.